,,PressureMeas_1m,,PRMeasQMR101_1,,RHStat155_1m_1,,SRMeasQMS101R_1m,,TAStat155_1m_1,,GenWind_1,,GenWind_1,
2019-06-19, 00:00:06,VALID,918.04,VALID,0.0,VALID,98.714,VALID,0.015,VALID,20.945,VALID,118.0,VALID,0.0,
2019-06-19, 00:01:06,VALID,918.024,VALID,0.0,VALID,98.608,VALID,0.018,VALID,20.934,VALID,119.0,VALID,0.0,
2019-06-19, 00:02:06,VALID,917.988,VALID,0.0,VALID,98.516,VALID,0.013,VALID,20.903,VALID,119.0,VALID,0.0,
2019-06-19, 00:03:06,VALID,917.977,VALID,0.0,VALID,98.306,VALID,-0.002,VALID,20.894,VALID,120.0,VALID,0.0,
2019-06-19, 00:04:06,VALID,917.923,VALID,0.0,VALID,98.152,VALID,0.005,VALID,20.922,VALID,121.0,VALID,0.0,
2019-06-19, 00:05:06,VALID,917.917,VALID,0.0,VALID,98.121,VALID,-0.005,VALID,20.935,VALID,120.0,VALID,0.0,
2019-06-19, 00:06:06,VALID,917.887,VALID,0.0,VALID,98.202,VALID,0.014,VALID,20.943,VALID,120.0,VALID,0.0,
2019-06-19, 00:07:06,VALID,917.877,VALID,0.0,VALID,98.3,VALID,0.016,VALID,20.93,VALID,118.0,VALID,0.0,
2019-06-19, 00:08:06,VALID,917.852,VALID,0.0,VALID,98.345,VALID,0.01,VALID,20.906,VALID,116.0,VALID,0.0,
2019-06-19, 00:09:06,VALID,917.832,VALID,0.0,VALID,98.322,VALID,-0.014,VALID,20.875,VALID,112.0,VALID,0.0,
2019-06-19, 00:10:06,VALID,917.846,VALID,0.0,VALID,98.174,VALID,-0.01,VALID,20.844,VALID,105.0,VALID,0.0,
2019-06-19, 00:11:06,VALID,917.828,VALID,0.0,VALID,97.963,VALID,0.002,VALID,20.851,VALID,101.0,VALID,0.0,
2019-06-19, 00:12:06,VALID,917.805,VALID,0.0,VALID,97.752,VALID,-0.002,VALID,20.871,VALID,102.0,VALID,0.0,
2019-06-19, 00:13:06,VALID,917.779,VALID,0.0,VALID,97.566,VALID,-0.006,VALID,20.899,VALID,101.0,VALID,0.0,
2019-06-19, 00:14:06,VALID,917.749,VALID,0.0,VALID,97.386,VALID,-0.012,VALID,20.919,VALID,103.0,VALID,0.0,
2019-06-19, 00:15:06,VALID,917.723,VALID,0.0,VALID,97.19,VALID,-0.01,VALID,20.926,VALID,105.0,VALID,0.0,
2019-06-19, 00:16:06,VALID,917.696,VALID,0.0,VALID,97.005,VALID,0.001,VALID,20.927,VALID,109.0,VALID,0.0,
2019-06-19, 00:17:06,VALID,917.667,VALID,0.0,VALID,96.836,VALID,-0.005,VALID,20.932,VALID,118.0,VALID,0.0,
2019-06-19, 00:18:06,VALID,917.643,VALID,0.0,VALID,96.835,VALID,0.013,VALID,20.961,VALID,123.0,VALID,0.0,
2019-06-19, 00:19:06,VALID,917.634,VALID,0.0,VALID,96.845,VALID,0.008,VALID,20.991,VALID,131.0,VALID,0.0,
2019-06-19, 00:20:06,VALID,917.627,VALID,0.0,VALID,96.902,VALID,-0.006,VALID,21.017,VALID,125.0,VALID,0.0,
2019-06-19, 00:21:06,VALID,917.626,VALID,0.0,VALID,96.883,VALID,0.001,VALID,21.014,VALID,123.0,VALID,0.0,
2019-06-19, 00:22:06,VALID,917.612,VALID,0.0,VALID,96.865,VALID,0.003,VALID,21.004,VALID,123.0,VALID,0.0,
2019-06-19, 00:23:06,VALID,917.607,VALID,0.0,VALID,96.806,VALID,0.022,VALID,20.989,VALID,118.0,VALID,0.0,
2019-06-19, 00:24:06,VALID,917.596,VALID,0.0,VALID,96.566,VALID,0.011,VALID,20.979,VALID,112.0,VALID,0.0,
2019-06-19, 00:25:06,VALID,917.588,VALID,0.0,VALID,96.44,VALID,0.016,VALID,20.996,VALID,128.0,VALID,0.0,
2019-06-19, 00:26:06,VALID,917.623,VALID,0.0,VALID,96.282,VALID,0.03,VALID,21.02,VALID,115.0,VALID,0.0,
2019-06-19, 00:27:06,VALID,917.608,VALID,0.0,VALID,96.141,VALID,0.025,VALID,21.034,VALID,125.0,VALID,0.0,
2019-06-19, 00:28:06,VALID,917.629,VALID,0.0,VALID,96.227,VALID,0.013,VALID,21.051,VALID,120.0,VALID,0.0,
2019-06-19, 00:29:06,VALID,917.63,VALID,0.0,VALID,96.565,VALID,0.012,VALID,21.059,VALID,147.0,VALID,0.0,
2019-06-19, 00:30:06,VALID,917.61,VALID,0.0,VALID,96.77,VALID,0.015,VALID,21.033,VALID,153.0,VALID,0.0,
2019-06-19, 00:31:06,VALID,917.606,VALID,0.0,VALID,96.99,VALID,0.006,VALID,20.998,VALID,153.0,VALID,0.0,
2019-06-19, 00:32:06,VALID,917.605,VALID,0.0,VALID,97.123,VALID,0.005,VALID,20.963,VALID,145.0,VALID,0.0,
2019-06-19, 00:33:06,VALID,917.58,VALID,0.0,VALID,97.175,VALID,0.001,VALID,20.939,VALID,141.0,VALID,0.0,
2019-06-19, 00:34:06,VALID,917.571,VALID,0.0,VALID,97.256,VALID,0.008,VALID,20.932,VALID,138.0,VALID,0.0,
2019-06-19, 00:35:06,VALID,917.561,VALID,0.0,VALID,97.281,VALID,0.015,VALID,20.922,VALID,117.0,VALID,0.0,
2019-06-19, 00:36:06,VALID,917.554,VALID,0.0,VALID,97.261,VALID,0.016,VALID,20.916,VALID,148.0,VALID,0.0,
2019-06-19, 00:37:06,VALID,917.542,VALID,0.0,VALID,97.258,VALID,0.006,VALID,20.904,VALID,147.0,VALID,0.0,
2019-06-19, 00:38:06,VALID,917.53,VALID,0.0,VALID,97.281,VALID,0.034,VALID,20.896,VALID,147.0,VALID,0.0,
2019-06-19, 00:39:06,VALID,917.504,VALID,0.0,VALID,97.288,VALID,0.012,VALID,20.892,VALID,130.0,VALID,0.0,
2019-06-19, 00:40:06,VALID,917.525,VALID,0.0,VALID,97.227,VALID,0.018,VALID,20.899,VALID,168.0,VALID,0.0,
2019-06-19, 00:41:06,VALID,917.513,VALID,0.0,VALID,97.16,VALID,0.01,VALID,20.902,VALID,151.0,VALID,0.0,
2019-06-19, 00:42:06,VALID,917.515,VALID,0.0,VALID,97.118,VALID,0.011,VALID,20.888,VALID,151.0,VALID,0.0,
2019-06-19, 00:43:06,VALID,917.509,VALID,0.0,VALID,97.031,VALID,0.026,VALID,20.856,VALID,78.0,VALID,0.0,
2019-06-19, 00:44:06,VALID,917.488,VALID,0.0,VALID,97.068,VALID,0.028,VALID,20.804,VALID,51.0,VALID,0.0,
2019-06-19, 00:45:06,VALID,917.456,VALID,0.0,VALID,97.24,VALID,0.004,VALID,20.749,VALID,48.0,VALID,0.0,
2019-06-19, 00:46:06,VALID,917.421,VALID,0.0,VALID,97.418,VALID,0.007,VALID,20.715,VALID,48.0,VALID,0.0,
2019-06-19, 00:47:06,VALID,917.369,VALID,0.0,VALID,97.552,VALID,0.016,VALID,20.667,VALID,50.0,VALID,0.0,
2019-06-19, 00:48:06,VALID,917.363,VALID,0.0,VALID,97.724,VALID,0.008,VALID,20.667,VALID,63.0,VALID,0.0,
2019-06-19, 00:49:06,VALID,917.316,VALID,0.0,VALID,97.765,VALID,0.017,VALID,20.686,VALID,66.0,VALID,0.0,
2019-06-19, 00:50:06,VALID,917.293,VALID,0.0,VALID,97.652,VALID,0.013,VALID,20.712,VALID,66.0,VALID,0.0,
2019-06-19, 00:51:06,VALID,917.255,VALID,0.0,VALID,97.494,VALID,0.011,VALID,20.728,VALID,85.0,VALID,0.0,
2019-06-19, 00:52:06,VALID,917.222,VALID,0.0,VALID,97.252,VALID,0.013,VALID,20.746,VALID,86.0,VALID,0.0,
2019-06-19, 00:53:06,VALID,917.225,VALID,0.0,VALID,96.947,VALID,0.007,VALID,20.775,VALID,88.0,VALID,0.0,
2019-06-19, 00:54:06,VALID,917.188,VALID,0.0,VALID,96.681,VALID,-0.01,VALID,20.775,VALID,84.0,VALID,0.0,
2019-06-19, 00:55:06,VALID,917.186,VALID,0.0,VALID,96.6,VALID,0.001,VALID,20.758,VALID,81.0,VALID,0.0,
2019-06-19, 00:56:06,VALID,917.19,VALID,0.0,VALID,96.661,VALID,0.009,VALID,20.742,VALID,75.0,VALID,0.0,
2019-06-19, 00:57:06,VALID,917.178,VALID,0.0,VALID,96.739,VALID,-0.014,VALID,20.714,VALID,76.0,VALID,0.0,
2019-06-19, 00:58:06,VALID,917.18,VALID,0.0,VALID,96.863,VALID,0.017,VALID,20.702,VALID,72.0,VALID,0.0,
2019-06-19, 00:59:06,VALID,917.175,VALID,0.0,VALID,96.927,VALID,0.007,VALID,20.691,VALID,78.0,VALID,0.0,
2019-06-19, 01:00:06,VALID,917.169,VALID,0.0,VALID,96.95,VALID,0.004,VALID,20.684,VALID,90.0,VALID,0.0,
2019-06-19, 01:01:06,VALID,917.147,VALID,0.0,VALID,96.909,VALID,0.012,VALID,20.69,VALID,97.0,VALID,0.0,
2019-06-19, 01:02:06,VALID,917.13,VALID,0.0,VALID,96.853,VALID,-0.006,VALID,20.727,VALID,97.0,VALID,0.0,
2019-06-19, 01:03:06,VALID,917.114,VALID,0.0,VALID,96.741,VALID,-0.013,VALID,20.788,VALID,101.0,VALID,0.0,
2019-06-19, 01:04:06,VALID,917.105,VALID,0.0,VALID,96.483,VALID,-0.007,VALID,20.857,VALID,96.0,VALID,0.0,
2019-06-19, 01:05:06,VALID,917.105,VALID,0.0,VALID,96.109,VALID,-0.001,VALID,20.902,VALID,91.0,VALID,0.0,
2019-06-19, 01:06:06,VALID,917.096,VALID,0.0,VALID,95.882,VALID,-0.008,VALID,20.921,VALID,92.0,VALID,0.0,
2019-06-19, 01:07:06,VALID,917.092,VALID,0.0,VALID,95.774,VALID,0.003,VALID,20.928,VALID,98.0,VALID,0.0,
2019-06-19, 01:08:06,VALID,917.083,VALID,0.0,VALID,95.718,VALID,-0.011,VALID,20.953,VALID,104.0,VALID,0.0,
2019-06-19, 01:09:06,VALID,917.06,VALID,0.0,VALID,95.587,VALID,-0.019,VALID,20.993,VALID,102.0,VALID,0.0,
2019-06-19, 01:10:06,VALID,917.045,VALID,0.0,VALID,95.431,VALID,-0.01,VALID,21.014,VALID,101.0,VALID,0.0,
2019-06-19, 01:11:06,VALID,917.028,VALID,0.0,VALID,95.384,VALID,-0.007,VALID,21.028,VALID,108.0,VALID,0.0,
2019-06-19, 01:12:06,VALID,917.018,VALID,0.0,VALID,95.33,VALID,-0.012,VALID,21.042,VALID,106.0,VALID,0.0,
2019-06-19, 01:13:06,VALID,917.005,VALID,0.0,VALID,95.303,VALID,-0.008,VALID,21.046,VALID,102.0,VALID,0.0,
2019-06-19, 01:14:06,VALID,917.002,VALID,0.0,VALID,95.308,VALID,-0.017,VALID,21.047,VALID,101.0,VALID,0.0,
2019-06-19, 01:15:06,VALID,916.991,VALID,0.0,VALID,95.38,VALID,-0.025,VALID,21.036,VALID,94.0,VALID,0.0,
2019-06-19, 01:16:06,VALID,916.98,VALID,0.0,VALID,95.436,VALID,-0.025,VALID,21.014,VALID,88.0,VALID,0.0,
2019-06-19, 01:17:06,VALID,916.983,VALID,0.0,VALID,95.596,VALID,0.013,VALID,20.964,VALID,81.0,VALID,0.0,
2019-06-19, 01:18:06,VALID,916.969,VALID,0.0,VALID,95.791,VALID,0.048,VALID,20.892,VALID,81.0,VALID,0.0,
2019-06-19, 01:19:06,VALID,916.952,VALID,0.0,VALID,96.094,VALID,0.027,VALID,20.855,VALID,77.0,VALID,0.0,
2019-06-19, 01:20:06,VALID,916.972,VALID,0.0,VALID,96.318,VALID,0.029,VALID,20.826,VALID,80.0,VALID,0.0,
2019-06-19, 01:21:06,VALID,916.967,VALID,0.0,VALID,96.499,VALID,0.042,VALID,20.797,VALID,83.0,VALID,0.0,
2019-06-19, 01:22:06,VALID,916.961,VALID,0.0,VALID,96.717,VALID,0.029,VALID,20.766,VALID,94.0,VALID,0.0,
2019-06-19, 01:23:06,VALID,916.947,VALID,0.0,VALID,97.012,VALID,0.042,VALID,20.745,VALID,98.0,VALID,0.0,
2019-06-19, 01:24:06,VALID,916.922,VALID,0.0,VALID,97.221,VALID,0.04,VALID,20.703,VALID,98.0,VALID,0.0,
2019-06-19, 01:25:06,VALID,916.899,VALID,0.0,VALID,97.449,VALID,0.046,VALID,20.66,VALID,97.0,VALID,0.0,
2019-06-19, 01:26:06,VALID,916.884,VALID,0.0,VALID,97.642,VALID,0.04,VALID,20.628,VALID,101.0,VALID,0.0,
2019-06-19, 01:27:06,VALID,916.856,VALID,0.0,VALID,97.85,VALID,0.056,VALID,20.61,VALID,104.0,VALID,0.0,
2019-06-19, 01:28:06,VALID,916.843,VALID,0.0,VALID,97.966,VALID,0.062,VALID,20.597,VALID,102.0,VALID,0.0,
2019-06-19, 01:29:06,VALID,916.818,VALID,0.0,VALID,98.013,VALID,0.052,VALID,20.585,VALID,105.0,VALID,0.0,
2019-06-19, 01:30:06,VALID,916.805,VALID,0.0,VALID,98.078,VALID,0.057,VALID,20.592,VALID,113.0,VALID,0.0,
2019-06-19, 01:31:06,VALID,916.806,VALID,0.0,VALID,98.01,VALID,0.056,VALID,20.607,VALID,102.0,VALID,0.0,
2019-06-19, 01:32:06,VALID,916.8,VALID,0.0,VALID,97.961,VALID,0.021,VALID,20.614,VALID,106.0,VALID,0.0,
2019-06-19, 01:33:06,VALID,916.79,VALID,0.0,VALID,97.946,VALID,0.014,VALID,20.622,VALID,102.0,VALID,0.0,
2019-06-19, 01:34:06,VALID,916.795,VALID,0.0,VALID,97.829,VALID,0.011,VALID,20.625,VALID,95.0,VALID,0.0,
2019-06-19, 01:35:06,VALID,916.779,VALID,0.0,VALID,97.726,VALID,0.014,VALID,20.616,VALID,104.0,VALID,0.0,
2019-06-19, 01:36:06,VALID,916.791,VALID,0.0,VALID,97.672,VALID,0.014,VALID,20.613,VALID,105.0,VALID,0.0,
2019-06-19, 01:37:06,VALID,916.763,VALID,0.0,VALID,97.598,VALID,-0.0,VALID,20.617,VALID,107.0,VALID,0.0,
2019-06-19, 01:38:06,VALID,916.786,VALID,0.0,VALID,97.471,VALID,0.009,VALID,20.632,VALID,115.0,VALID,0.0,
2019-06-19, 01:39:06,VALID,916.774,VALID,0.0,VALID,97.249,VALID,0.015,VALID,20.681,VALID,117.0,VALID,0.0,
2019-06-19, 01:40:06,VALID,916.775,VALID,0.0,VALID,96.916,VALID,0.004,VALID,20.74,VALID,113.0,VALID,0.0,
2019-06-19, 01:41:06,VALID,916.768,VALID,0.0,VALID,96.633,VALID,0.006,VALID,20.78,VALID,109.0,VALID,0.0,
2019-06-19, 01:42:06,VALID,916.8,VALID,0.0,VALID,96.491,VALID,0.006,VALID,20.804,VALID,106.0,VALID,0.0,
2019-06-19, 01:43:06,VALID,916.782,VALID,0.0,VALID,96.354,VALID,0.019,VALID,20.816,VALID,106.0,VALID,0.0,
2019-06-19, 01:44:06,VALID,916.792,VALID,0.0,VALID,96.218,VALID,-0.0,VALID,20.832,VALID,107.0,VALID,0.0,
2019-06-19, 01:45:06,VALID,916.757,VALID,0.0,VALID,96.155,VALID,0.015,VALID,20.837,VALID,106.0,VALID,0.0,
2019-06-19, 01:46:06,VALID,916.774,VALID,0.0,VALID,96.086,VALID,0.019,VALID,20.838,VALID,113.0,VALID,0.0,
2019-06-19, 01:47:06,VALID,916.758,VALID,0.0,VALID,96.121,VALID,-0.002,VALID,20.831,VALID,119.0,VALID,0.0,
2019-06-19, 01:48:06,VALID,916.745,VALID,0.0,VALID,96.12,VALID,-0.002,VALID,20.831,VALID,123.0,VALID,0.0,
2019-06-19, 01:49:06,VALID,916.726,VALID,0.0,VALID,96.008,VALID,0.015,VALID,20.832,VALID,122.0,VALID,0.0,
2019-06-19, 01:50:06,VALID,916.705,VALID,0.0,VALID,95.959,VALID,-0.005,VALID,20.841,VALID,114.0,VALID,0.0,
2019-06-19, 01:51:06,VALID,916.692,VALID,0.0,VALID,95.932,VALID,-0.008,VALID,20.834,VALID,106.0,VALID,0.0,
2019-06-19, 01:52:06,VALID,916.673,VALID,0.0,VALID,95.89,VALID,0.007,VALID,20.832,VALID,109.0,VALID,0.0,
2019-06-19, 01:53:06,VALID,916.66,VALID,0.0,VALID,95.864,VALID,-0.01,VALID,20.818,VALID,114.0,VALID,0.0,
2019-06-19, 01:54:06,VALID,916.662,VALID,0.0,VALID,95.988,VALID,-0.011,VALID,20.811,VALID,125.0,VALID,0.0,
2019-06-19, 01:55:06,VALID,916.648,VALID,0.0,VALID,95.996,VALID,-0.009,VALID,20.81,VALID,123.0,VALID,0.0,
2019-06-19, 01:56:06,VALID,916.664,VALID,0.0,VALID,95.994,VALID,0.004,VALID,20.8,VALID,120.0,VALID,0.0,
2019-06-19, 01:57:06,VALID,916.655,VALID,0.0,VALID,96.053,VALID,-0.01,VALID,20.79,VALID,124.0,VALID,0.0,
2019-06-19, 01:58:06,VALID,916.655,VALID,0.0,VALID,96.189,VALID,-0.009,VALID,20.789,VALID,125.0,VALID,0.0,
2019-06-19, 01:59:06,VALID,916.654,VALID,0.0,VALID,96.215,VALID,0.014,VALID,20.792,VALID,119.0,VALID,0.0,
2019-06-19, 02:00:06,VALID,916.661,VALID,0.0,VALID,96.246,VALID,0.004,VALID,20.796,VALID,119.0,VALID,0.0,
2019-06-19, 02:01:06,VALID,916.656,VALID,0.0,VALID,96.233,VALID,-0.017,VALID,20.797,VALID,117.0,VALID,0.0,
2019-06-19, 02:02:06,VALID,916.665,VALID,0.0,VALID,96.213,VALID,0.012,VALID,20.802,VALID,119.0,VALID,0.0,
2019-06-19, 02:03:06,VALID,916.665,VALID,0.0,VALID,96.184,VALID,-0.011,VALID,20.803,VALID,109.0,VALID,0.0,
2019-06-19, 02:04:06,VALID,916.667,VALID,0.0,VALID,96.177,VALID,-0.006,VALID,20.79,VALID,104.0,VALID,0.0,
2019-06-19, 02:05:06,VALID,916.677,VALID,0.0,VALID,96.247,VALID,-0.009,VALID,20.782,VALID,104.0,VALID,0.0,
2019-06-19, 02:06:06,VALID,916.675,VALID,0.0,VALID,96.27,VALID,-0.022,VALID,20.788,VALID,85.0,VALID,0.0,
2019-06-19, 02:07:06,VALID,916.677,VALID,0.0,VALID,96.257,VALID,-0.001,VALID,20.758,VALID,65.0,VALID,0.0,
2019-06-19, 02:08:06,VALID,916.697,VALID,0.0,VALID,96.339,VALID,-0.005,VALID,20.702,VALID,56.0,VALID,0.0,
2019-06-19, 02:09:06,VALID,916.671,VALID,0.0,VALID,96.526,VALID,-0.009,VALID,20.652,VALID,72.0,VALID,0.0,
2019-06-19, 02:10:06,VALID,916.662,VALID,0.0,VALID,96.756,VALID,0.004,VALID,20.646,VALID,80.0,VALID,0.0,
2019-06-19, 02:11:06,VALID,916.62,VALID,0.0,VALID,96.821,VALID,0.003,VALID,20.66,VALID,80.0,VALID,0.0,
2019-06-19, 02:12:06,VALID,916.6,VALID,0.0,VALID,96.742,VALID,-0.006,VALID,20.662,VALID,90.0,VALID,0.0,
2019-06-19, 02:13:06,VALID,916.594,VALID,0.0,VALID,96.755,VALID,-0.004,VALID,20.671,VALID,97.0,VALID,0.0,
2019-06-19, 02:14:06,VALID,916.592,VALID,0.0,VALID,96.733,VALID,0.005,VALID,20.675,VALID,105.0,VALID,0.0,
2019-06-19, 02:15:06,VALID,916.586,VALID,0.0,VALID,96.754,VALID,-0.015,VALID,20.67,VALID,101.0,VALID,0.0,
2019-06-19, 02:16:06,VALID,916.592,VALID,0.0,VALID,96.794,VALID,-0.009,VALID,20.666,VALID,104.0,VALID,0.0,
2019-06-19, 02:17:06,VALID,916.593,VALID,0.0,VALID,96.832,VALID,0.02,VALID,20.665,VALID,102.0,VALID,0.0,
2019-06-19, 02:18:06,VALID,916.576,VALID,0.0,VALID,96.852,VALID,-0.0,VALID,20.657,VALID,108.0,VALID,0.0,
2019-06-19, 02:19:06,VALID,916.545,VALID,0.0,VALID,96.921,VALID,0.001,VALID,20.668,VALID,111.0,VALID,0.0,
2019-06-19, 02:20:06,VALID,916.547,VALID,0.0,VALID,96.967,VALID,0.021,VALID,20.684,VALID,105.0,VALID,0.0,
2019-06-19, 02:21:06,VALID,916.526,VALID,0.0,VALID,96.992,VALID,-0.001,VALID,20.689,VALID,103.0,VALID,0.0,
2019-06-19, 02:22:06,VALID,916.523,VALID,0.0,VALID,96.999,VALID,0.016,VALID,20.682,VALID,102.0,VALID,0.0,
2019-06-19, 02:23:06,VALID,916.494,VALID,0.0,VALID,96.974,VALID,0.012,VALID,20.67,VALID,104.0,VALID,0.0,
2019-06-19, 02:24:06,VALID,916.511,VALID,0.0,VALID,96.909,VALID,0.004,VALID,20.669,VALID,103.0,VALID,0.0,
2019-06-19, 02:25:06,VALID,916.493,VALID,0.0,VALID,96.866,VALID,0.012,VALID,20.672,VALID,104.0,VALID,0.0,
2019-06-19, 02:26:06,VALID,916.478,VALID,0.0,VALID,96.817,VALID,0.011,VALID,20.682,VALID,116.0,VALID,0.0,
2019-06-19, 02:27:06,VALID,916.486,VALID,0.0,VALID,96.752,VALID,0.017,VALID,20.685,VALID,122.0,VALID,0.0,
2019-06-19, 02:28:06,VALID,916.46,VALID,0.0,VALID,96.742,VALID,0.003,VALID,20.69,VALID,122.0,VALID,0.0,
2019-06-19, 02:29:06,VALID,916.435,VALID,0.0,VALID,96.691,VALID,0.004,VALID,20.694,VALID,121.0,VALID,0.0,
2019-06-19, 02:30:06,VALID,916.417,VALID,0.0,VALID,96.648,VALID,-0.001,VALID,20.707,VALID,118.0,VALID,0.0,
2019-06-19, 02:31:06,VALID,916.415,VALID,0.0,VALID,96.579,VALID,-0.009,VALID,20.716,VALID,118.0,VALID,0.0,
2019-06-19, 02:32:06,VALID,916.389,VALID,0.0,VALID,96.503,VALID,0.012,VALID,20.711,VALID,118.0,VALID,0.0,
2019-06-19, 02:33:06,VALID,916.381,VALID,0.0,VALID,96.462,VALID,0.03,VALID,20.705,VALID,113.0,VALID,0.0,
2019-06-19, 02:34:06,VALID,916.366,VALID,0.0,VALID,96.458,VALID,0.022,VALID,20.684,VALID,110.0,VALID,0.0,
2019-06-19, 02:35:06,VALID,916.355,VALID,0.0,VALID,96.526,VALID,0.022,VALID,20.661,VALID,110.0,VALID,0.0,
2019-06-19, 02:36:06,VALID,916.324,VALID,0.0,VALID,96.629,VALID,0.028,VALID,20.636,VALID,110.0,VALID,0.0,
2019-06-19, 02:37:06,VALID,916.318,VALID,0.0,VALID,96.715,VALID,0.023,VALID,20.622,VALID,110.0,VALID,0.0,
2019-06-19, 02:38:06,VALID,916.298,VALID,0.0,VALID,96.689,VALID,0.035,VALID,20.621,VALID,110.0,VALID,0.0,
2019-06-19, 02:39:06,VALID,916.27,VALID,0.0,VALID,96.745,VALID,0.046,VALID,20.636,VALID,110.0,VALID,0.0,
2019-06-19, 02:40:06,VALID,916.271,VALID,0.0,VALID,96.821,VALID,0.025,VALID,20.654,VALID,110.0,VALID,0.0,
2019-06-19, 02:41:06,VALID,916.247,VALID,0.0,VALID,96.889,VALID,0.017,VALID,20.664,VALID,110.0,VALID,0.0,
2019-06-19, 02:42:06,VALID,916.231,VALID,0.0,VALID,96.848,VALID,0.019,VALID,20.655,VALID,110.0,VALID,0.0,
2019-06-19, 02:43:06,VALID,916.221,VALID,0.0,VALID,96.898,VALID,0.027,VALID,20.653,VALID,110.0,VALID,0.0,
2019-06-19, 02:44:06,VALID,916.197,VALID,0.0,VALID,96.911,VALID,0.042,VALID,20.644,VALID,110.0,VALID,0.0,
2019-06-19, 02:45:06,VALID,916.203,VALID,0.0,VALID,96.916,VALID,0.024,VALID,20.623,VALID,110.0,VALID,0.0,
2019-06-19, 02:46:06,VALID,916.212,VALID,0.0,VALID,96.9,VALID,0.036,VALID,20.602,VALID,110.0,VALID,0.0,
2019-06-19, 02:47:06,VALID,916.208,VALID,0.0,VALID,96.953,VALID,-0.005,VALID,20.594,VALID,110.0,VALID,0.0,
2019-06-19, 02:48:06,VALID,916.188,VALID,0.0,VALID,96.981,VALID,-0.006,VALID,20.589,VALID,110.0,VALID,0.0,
2019-06-19, 02:49:06,VALID,916.174,VALID,0.0,VALID,97.002,VALID,0.0,VALID,20.577,VALID,110.0,VALID,0.0,
2019-06-19, 02:50:06,VALID,916.154,VALID,0.0,VALID,97.204,VALID,-0.001,VALID,20.567,VALID,110.0,VALID,0.0,
2019-06-19, 02:51:06,VALID,916.112,VALID,0.0,VALID,97.389,VALID,-0.008,VALID,20.559,VALID,110.0,VALID,0.0,
2019-06-19, 02:52:06,VALID,916.121,VALID,0.0,VALID,97.519,VALID,-0.016,VALID,20.564,VALID,110.0,VALID,0.0,
2019-06-19, 02:53:06,VALID,916.1,VALID,0.0,VALID,97.54,VALID,-0.017,VALID,20.562,VALID,110.0,VALID,0.0,
2019-06-19, 02:54:06,VALID,916.1,VALID,0.0,VALID,97.525,VALID,-0.017,VALID,20.56,VALID,110.0,VALID,0.0,
2019-06-19, 02:55:06,VALID,916.094,VALID,0.0,VALID,97.542,VALID,-0.017,VALID,20.56,VALID,110.0,VALID,0.0,
2019-06-19, 02:56:06,VALID,916.119,VALID,0.0,VALID,97.568,VALID,-0.03,VALID,20.564,VALID,110.0,VALID,0.0,
2019-06-19, 02:57:06,VALID,916.133,VALID,0.0,VALID,97.532,VALID,-0.019,VALID,20.558,VALID,110.0,VALID,0.0,
2019-06-19, 02:58:06,VALID,916.148,VALID,0.0,VALID,97.499,VALID,-0.016,VALID,20.551,VALID,110.0,VALID,0.0,
2019-06-19, 02:59:06,VALID,916.152,VALID,0.0,VALID,97.429,VALID,-0.009,VALID,20.534,VALID,111.0,VALID,0.0,
2019-06-19, 03:00:06,VALID,916.166,VALID,0.0,VALID,97.386,VALID,-0.005,VALID,20.534,VALID,116.0,VALID,0.0,
2019-06-19, 03:01:06,VALID,916.173,VALID,0.0,VALID,97.398,VALID,-0.017,VALID,20.525,VALID,117.0,VALID,0.0,
2019-06-19, 03:02:06,VALID,916.184,VALID,0.0,VALID,97.387,VALID,0.025,VALID,20.52,VALID,120.0,VALID,0.0,
2019-06-19, 03:03:06,VALID,916.176,VALID,0.0,VALID,97.357,VALID,0.023,VALID,20.534,VALID,120.0,VALID,0.0,
2019-06-19, 03:04:06,VALID,916.173,VALID,0.0,VALID,97.289,VALID,0.012,VALID,20.55,VALID,121.0,VALID,0.0,
2019-06-19, 03:05:06,VALID,916.167,VALID,0.0,VALID,97.234,VALID,0.021,VALID,20.564,VALID,121.0,VALID,0.0,
2019-06-19, 03:06:06,VALID,916.178,VALID,0.0,VALID,97.172,VALID,0.011,VALID,20.556,VALID,121.0,VALID,0.0,
2019-06-19, 03:07:06,VALID,916.171,VALID,0.0,VALID,97.024,VALID,0.025,VALID,20.505,VALID,121.0,VALID,0.0,
2019-06-19, 03:08:06,VALID,916.184,VALID,0.0,VALID,97.012,VALID,0.022,VALID,20.45,VALID,121.0,VALID,0.0,
2019-06-19, 03:09:06,VALID,916.181,VALID,0.0,VALID,97.078,VALID,0.034,VALID,20.367,VALID,121.0,VALID,0.0,
2019-06-19, 03:10:06,VALID,916.174,VALID,0.0,VALID,97.158,VALID,0.025,VALID,20.278,VALID,121.0,VALID,0.0,
2019-06-19, 03:11:06,VALID,916.173,VALID,0.0,VALID,97.349,VALID,0.034,VALID,20.222,VALID,120.0,VALID,0.0,
2019-06-19, 03:12:06,VALID,916.192,VALID,0.0,VALID,97.592,VALID,0.014,VALID,20.187,VALID,119.0,VALID,0.0,
2019-06-19, 03:13:06,VALID,916.169,VALID,0.0,VALID,97.803,VALID,0.025,VALID,20.168,VALID,119.0,VALID,0.0,
2019-06-19, 03:14:06,VALID,916.19,VALID,0.0,VALID,97.987,VALID,0.01,VALID,20.173,VALID,119.0,VALID,0.0,
2019-06-19, 03:15:06,VALID,916.193,VALID,0.0,VALID,98.035,VALID,0.018,VALID,20.142,VALID,113.0,VALID,0.0,
2019-06-19, 03:16:06,VALID,916.185,VALID,0.0,VALID,97.866,VALID,0.017,VALID,20.071,VALID,110.0,VALID,0.0,
2019-06-19, 03:17:06,VALID,916.204,VALID,0.0,VALID,97.863,VALID,0.014,VALID,20.039,VALID,103.0,VALID,0.0,
2019-06-19, 03:18:06,VALID,916.212,VALID,0.0,VALID,97.941,VALID,0.034,VALID,20.037,VALID,89.0,VALID,0.0,
2019-06-19, 03:19:06,VALID,916.227,VALID,0.0,VALID,98.225,VALID,0.033,VALID,20.092,VALID,82.0,VALID,0.0,
2019-06-19, 03:20:06,VALID,916.236,VALID,0.0,VALID,98.355,VALID,0.034,VALID,20.098,VALID,80.0,VALID,0.0,
2019-06-19, 03:21:06,VALID,916.241,VALID,0.0,VALID,98.136,VALID,0.05,VALID,20.01,VALID,80.0,VALID,0.0,
2019-06-19, 03:22:06,VALID,916.254,VALID,0.0,VALID,98.175,VALID,0.039,VALID,19.984,VALID,71.0,VALID,0.0,
2019-06-19, 03:23:06,VALID,916.241,VALID,0.0,VALID,98.163,VALID,0.031,VALID,19.959,VALID,57.0,VALID,0.0,
2019-06-19, 03:24:06,VALID,916.245,VALID,0.0,VALID,98.396,VALID,0.03,VALID,20.0,VALID,55.0,VALID,0.0,
2019-06-19, 03:25:06,VALID,916.238,VALID,0.0,VALID,98.482,VALID,0.023,VALID,20.032,VALID,56.0,VALID,0.0,
2019-06-19, 03:26:06,VALID,916.256,VALID,0.0,VALID,98.528,VALID,0.041,VALID,20.052,VALID,61.0,VALID,0.0,
2019-06-19, 03:27:06,VALID,916.257,VALID,0.0,VALID,98.543,VALID,0.039,VALID,20.075,VALID,64.0,VALID,0.0,
2019-06-19, 03:28:06,VALID,916.279,VALID,0.0,VALID,98.548,VALID,0.045,VALID,20.09,VALID,64.0,VALID,0.0,
2019-06-19, 03:29:06,VALID,916.283,VALID,0.0,VALID,98.508,VALID,0.033,VALID,20.083,VALID,64.0,VALID,0.0,
2019-06-19, 03:30:06,VALID,916.297,VALID,0.0,VALID,98.524,VALID,0.042,VALID,20.096,VALID,64.0,VALID,0.0,
2019-06-19, 03:31:06,VALID,916.314,VALID,0.0,VALID,98.466,VALID,0.029,VALID,20.075,VALID,64.0,VALID,0.0,
2019-06-19, 03:32:06,VALID,916.329,VALID,0.0,VALID,98.335,VALID,0.026,VALID,20.027,VALID,64.0,VALID,0.0,
2019-06-19, 03:33:06,VALID,916.339,VALID,0.0,VALID,98.188,VALID,0.024,VALID,19.983,VALID,67.0,VALID,0.0,
2019-06-19, 03:34:06,VALID,916.347,VALID,0.0,VALID,98.084,VALID,0.009,VALID,19.943,VALID,73.0,VALID,0.0,
2019-06-19, 03:35:06,VALID,916.359,VALID,0.0,VALID,98.012,VALID,0.03,VALID,19.908,VALID,129.0,VALID,0.0,
2019-06-19, 03:36:06,VALID,916.389,VALID,0.0,VALID,97.941,VALID,0.03,VALID,19.888,VALID,147.0,VALID,0.0,
2019-06-19, 03:37:06,VALID,916.388,VALID,0.0,VALID,98.07,VALID,0.034,VALID,19.914,VALID,147.0,VALID,0.0,
2019-06-19, 03:38:06,VALID,916.388,VALID,0.0,VALID,98.291,VALID,0.0,VALID,19.963,VALID,147.0,VALID,0.0,
2019-06-19, 03:39:06,VALID,916.398,VALID,0.0,VALID,98.48,VALID,0.012,VALID,19.995,VALID,147.0,VALID,0.0,
2019-06-19, 03:40:06,VALID,916.409,VALID,0.0,VALID,98.622,VALID,0.023,VALID,20.003,VALID,147.0,VALID,0.0,
2019-06-19, 03:41:06,VALID,916.424,VALID,0.0,VALID,98.718,VALID,0.023,VALID,20.008,VALID,147.0,VALID,0.0,
2019-06-19, 03:42:06,VALID,916.41,VALID,0.0,VALID,98.783,VALID,0.004,VALID,20.005,VALID,147.0,VALID,0.0,
2019-06-19, 03:43:06,VALID,916.424,VALID,0.0,VALID,98.727,VALID,0.009,VALID,19.926,VALID,147.0,VALID,0.0,